Other Public Products
Issued by NWS Grand Forks, ND

Home | Current Version | Previous Version | Graphics & Text | Print | Product List | Glossary On
Versions: 1 2 3 4 5 6 7 8 9 10 11 12 13 14 15 16 17 18 19 20 21 22 23 24 25 26 27 28 29 30 31 32 33 34 35 36 37 38 39 40 41 42 43 44 45 46 47 48 49 50
000
FPUS83 KFGF 221631
OPUFGF
PRAIRIE TO PINES WEATHER ROUNDUP
NATIONAL WEATHER SERVICE EASTERN NORTH DAKOTA/GRAND FORKS ND
1100 AM CDT TUE JUL 22 2014

 **SATELLITE DATA USED TO AUGMENT SKY COVER AT AUTOMATED STATIONS**
 *****  WEATHER ACROSS EASTERN NORTH DAKOTA  *****

CITY           SKY/WX    TMP DP  RH WIND       PRES   REMARKS
GRAND FORKS    MOSUNNY   72  57  59 N12       30.12R
GRAND FORKS AF SUNNY     72  58  61 N10       30.14R
GRAND CITY NWS   N/A     72 N/A N/A N6          N/A
BUXTON           N/A     74  60  61 N6G17       N/A
DEVILS LAKE    SUNNY     72  55  56 NE3       30.16R
FARGO          SUNNY     74  58  57 N12       30.11R
WAHPETON ARPT  SUNNY     72  54  53 N12G20    30.11R
$$

 *****  WEATHER ACROSS CENTRAL AND WESTERN NORTH DAKOTA  *****

CITY           SKY/WX    TMP DP  RH WIND       PRES   REMARKS
JAMESTOWN      SUNNY     72  59  63 N8        30.16R
BISMARCK       MOSUNNY   70  62  76 E6        30.20R
MINOT          CLOUDY    70  60  70 VRB3      30.18R
MINOT AFB      MOSUNNY   69  64  84 NE3       30.18R
GARRISON         N/A     72  63  73 CALM      30.19R
WILLISTON      SUNNY     75  62  64 CALM      30.17S
DICKINSON      MOSUNNY   70  63  78 E3        30.20S
HETTINGER      SUNNY     73  61  65 VRB6      30.22R
$$

 *****  OTHER OBSERVATIONS NORTHEAST NORTH DAKOTA  *****

CITY           SKY/WX    TMP DP  RH WIND       PRES   REMARKS
WALHALLA       FAIR      72  54  53 N6          N/A
LANGDON        FAIR      72  55  56 N8        30.17R
CAVALIER       FAIR      70  54  56 N8        30.14R
GRAFTON        FAIR      72  55  56 N10       30.13R
CANDO          FAIR      72  59  64 NE5         N/A
FORT TOTTEN      N/A     73  65  75 N2        29.95S
ROLLA            N/A     72  59  64 N6        30.20R
RUGBY          FAIR      72  57  60 CALM      30.18R
 ***** THE ABOVE OBSERVATIONS ARE NON NWS ARE NOT QUALITY
        CONTROLLED AND MAY MIS-REPORT RAIN FOR SNOW...
$$

 *****  OTHER OBSERVATIONS SOUTHEAST NORTH DAKOTA *****

CITY           SKY/WX    TMP DP  RH WIND       PRES   REMARKS
COOPERSTOWN    NOT AVBL
VALLEY CITY    FAIR      72  59  64 N7        30.15S
OAKES          NOT AVBL
GWINNER        SUNNY     73  61  64 N9        30.15R
BUFFALO        NOT AVBL
WYNDMERE       NOT AVBL
 ***** THE ABOVE OBSERVATIONS ARE NON NWS ARE NOT QUALITY
       CONTROLLED AND MAY MIS-REPORT RAIN FOR SNOW...
$$

  *****  WEATHER ACROSS NORTHERN MINNESOTA  *****

CITY           SKY/WX    TMP DP  RH WIND       PRES   REMARKS
FLAG ISLAND    SUNNY     68  54  60 NW14      30.03R
WARROAD        SUNNY     72  57  60 NW13      30.05R
ROSEAU         SUNNY     72  57  60 NW14      30.07R
HALLOCK        SUNNY     72  57  60 N9        30.11R
THF RVR FALLS  SUNNY     70  55  60 NW13      30.11R
HALSTAD        NOT AVBL
FOSSTON        SUNNY     70  57  64 NW14      30.10R
BAUDETTE       SUNNY     69  57  65 NW14G20   30.03R
WASKISH        SUNNY     72  57  60 W12G17    30.04R
CROOKSTON      NOT AVBL
$$
  *****  WEATHER ACROSS CENTRAL AND WEST MINNESOTA  *****

CITY           SKY/WX    TMP DP  RH WIND       PRES   REMARKS
BEMIDJI        SUNNY     71  56  57 NW16G22   30.06R
PARK RAPIDS    SUNNY     71  58  63 NW15      30.05R
WADENA         SUNNY     72  57  60 NW14G20   30.07R
DETROIT LAKES  SUNNY     70  57  64 N12       30.12R
MOORHEAD       SUNNY     73  63  68 N10       30.12R
FERGUS FALLS   SUNNY     73  55  53 N17       30.09R
ELBOW LAKE     FAIR      71  61  70 N16       30.09R
MORRIS MN      SUNNY     72  63  73 NW20G26   30.07R
STAPLES        MOSUNNY   72  59  64 NW18G26   30.04S
WHEATON        SUNNY     72  61  68 NW15G23   30.12R
$$
  *****  WEATHER ELSEWHERE ACROSS MINNESOTA  *****

CITY           SKY/WX    TMP DP  RH WIND       PRES   REMARKS
DULUTH         MOSUNNY   72  63  73 NW17G24   29.92R
INTRNTL FALLS  MOSUNNY   70  60  70 NW14      29.97R
ELY            CLOUDY    64  61  88 NW12G20   29.92R
CLOQUET        PTSUNNY   72  63  73 NW20G25   29.94S
BRAINERD       MOSUNNY   72  60  66 N17       30.01F
HIBBING        MOSUNNY   73  62  68 NW15G25   29.97R
ALEXANDRIA     MOSUNNY   72  62  71 N13G26    30.07R
SAINT CLOUD    CLOUDY    79  63  57 N17G25    29.99R
MINNEAPOLIS    PTSUNNY   80  65  59 N16       29.97R
$$

  *****  WEATHER ACROSS SOUTH DAKOTA  *****

CITY           SKY/WX    TMP DP  RH WIND       PRES   REMARKS
SIOUX FALLS    PTSUNNY   77  66  68 N12G20    30.08R
BROOKINGS      NOT AVBL
WATERTOWN      MOSUNNY   74  57  55 N22G30    30.10R
HURON          MOSUNNY   74  64  71 N12       30.12R
SISSETON         N/A     73  61  65 N16       30.10R
ABERDEEN       MOSUNNY   73  61  65 N15       30.14R
MITCHELL       PTSUNNY   75  66  73 N15       30.12R
PIERRE         PTSUNNY   72  63  73 NE14      30.14R
MOBRIDGE       MOSUNNY   72  63  73 N8        30.16S
RAPID CITY     SUNNY     76  64  66 CALM      30.22S
$$

  *****  SOME WEATHER IN NEARBY STATES *****

CITY           SKY/WX    TMP DP  RH WIND       PRES   REMARKS
GLASGOW MT     SUNNY     76  53  44 N5        30.17R
GREAT FALLS MT PTSUNNY   69  49  48 SW7       30.18S
CHEYENNE WY    SUNNY     73  56  54 NW12G21   30.38S
SCOTTSBLUFF NE SUNNY     82  59  45 SE9       30.25R
OMAHA NE       MOSUNNY   88  74  63 E10       29.96F HX  96
DES MOINES IA  CLOUDY    87  76  69 CALM      29.96R HX  97
DAVENPORT IA   PTSUNNY   82  73  74 W13       29.99R
CHICAGO IL     MOSUNNY   83  65  54 SW16G25   30.00S
EAU CLAIRE WI  PTSUNNY   80  65  59 NW10      29.93R
LA CROSSE WI   SUNNY     88  74  63 SW5       29.88S HX  96
$$

  *****  SOME NATIONAL WEATHER *****

CITY           SKY/WX    TMP DP  RH WIND       PRES   REMARKS
LA GUARDIA NY  MOSUNNY   84  65  52 SW10      30.13F
RALEIGH NC     PTSUNNY   81  71  71 E8        30.17F
ATLANTA GA     CLOUDY    77  70  78 CALM      30.16S
NEW ORLEANS LA PTSUNNY   88  76  67 NE6       30.03S HX  99
OKLAHOMA CITY  PTSUNNY   86  74  67 S9        30.11F HX  94
ALBUQUERQUE NM MOSUNNY   84  51  31 NW8       30.29S
SALT LAKE CITY PTSUNNY   82  38  20 VRB3      30.21R
LOS ANGELES CA MOSUNNY   72  61  68 S5        30.06R
BOISE ID       SUNNY     79  51  37 SE14      30.15R
SEATTLE WA     CLOUDY    59  53  80 S5        30.06S
$$

*** WEATHER ACROSS MANITOBA...SASKATCHEWAN AND ONTARIO ***
                ***ONTARIO***

CITY           SKY/WX    TMP DP  RH WIND       PRES   REMARKS
GERALDTON      LGT RAIN  64  63  94 S6        29.68F FOG
THUNDER BAY    CLOUDY    70  64  83 NW17G29   29.69R
SIOUX LOOKOUT  PTSUNNY   64  57  77 N9        29.96R
TORONTO        SUNNY     82  64  54 S8        30.07F
BIG TROUT LK   SUNNY     59  45  58 NE8       30.02R
PICKLE LAKE    CLOUDY    59  54  82 N9        29.94R
DRYDEN         MOSUNNY   66  57  72 N7G17     29.98R
KENORA         MOSUNNY   68  52  56 N10       30.04R
$$
                *** MANITOBA***

CITY           SKY/WX    TMP DP  RH WIND       PRES   REMARKS
BRANDON        PTSUNNY   72  63  73 E5        30.17R
DAUPHIN        SUNNY     70  59  68 NW3       30.16R
ISLAND LAKE    MOSUNNY   61  48  63 N6        30.13R
PILOT MOUND      N/A     70  55  60 N7          N/A
THE PAS        MOSUNNY   63  52  67 NW3       30.20R
THOMPSON       PTSUNNY   61  50  67 W5        30.17R
WINNIPEG       MOSUNNY   72  57  60 N8        30.11R
LYNN LAKE      MOSUNNY   64  43  45 N12       30.19R
CHURCHILL      MOSUNNY   59  50  72 N12       30.06R
GILLAM         PTSUNNY   59  54  82 NW10      30.12R
$$
                ***SASKATCHEWAN***

CITY           SKY/WX    TMP DP  RH WIND       PRES   REMARKS
ESTEVAN        PTSUNNY   72  57  60 E6        30.19R
KINDERSLEY     MOSUNNY   68  59  73 SE6       30.22R
LLOYDMINSTER   SUNNY     70  54  56 SE7       30.20S
PRINCE ALBERT  CLOUDY    66  57  72 VRB2      30.21R
REGINA         MOSUNNY   72  54  53 NE2       30.21R
YORKTON        SUNNY     70  55  60 VRB5      30.19R


USA.gov is the U.S. government's official web portal to all federal, state and local government web resources and services.